VTREY VOMM-VABB

Flight info

Callsign VTREY
Flight time 1h 33m
Altitude 43000
Route DOLKI2B DOLKI Q8 BEDOL MOLGO2A
Aircraft C25C/M-SDE2E3FGHRWXY/LB1

Departure

Time 2026-04-30 07:15
Airport Chennai International Airport (VOMM)

Arrival

Time 2026-04-30 08:48
Airport Chhatrapati Shivaji Maharaj International Airport (VABB)
Time Latitude Longitude Altitude Speed Heading
2026-04-30 06:29 12.99604 80.16887 50 ft 0 kts 202°
2026-04-30 06:57 12.99610 80.16889 50 ft 4 kts 201°
2026-04-30 06:57 12.99635 80.16898 50 ft 4 kts 192°
2026-04-30 06:57 12.99658 80.16900 50 ft 1 kts 178°
2026-04-30 06:57 12.99662 80.16900 50 ft 0 kts 178°
2026-04-30 07:03 12.99661 80.16900 50 ft 1 kts 178°
2026-04-30 07:03 12.99659 80.16901 50 ft 0 kts 167°
2026-04-30 07:06 12.99658 80.16901 50 ft 1 kts 168°
2026-04-30 07:07 12.99647 80.16911 48 ft 5 kts 122°
2026-04-30 07:07 12.99646 80.16914 48 ft 0 kts 123°
2026-04-30 07:07 12.99638 80.16925 47 ft 6 kts 124°
2026-04-30 07:08 12.99604 80.16997 48 ft 17 kts 118°
2026-04-30 07:08 12.99534 80.17129 49 ft 23 kts 116°
2026-04-30 07:08 12.99544 80.17201 51 ft 8 kts 38°
2026-04-30 07:08 12.99623 80.17209 50 ft 15 kts
2026-04-30 07:09 12.99663 80.17225 48 ft 3 kts 126°
2026-04-30 07:09 12.99643 80.17256 49 ft 7 kts 117°
2026-04-30 07:09 12.99614 80.17313 50 ft 11 kts 118°
2026-04-30 07:09 12.99570 80.17394 50 ft 15 kts 120°
2026-04-30 07:10 12.99518 80.17496 50 ft 18 kts 118°
2026-04-30 07:10 12.99460 80.17610 51 ft 16 kts 117°
2026-04-30 07:10 12.99429 80.17671 52 ft 0 kts 118°
2026-04-30 07:13 12.99427 80.17675 53 ft 4 kts 119°
2026-04-30 07:13 12.99382 80.17727 56 ft 16 kts 153°
2026-04-30 07:13 12.99318 80.17700 57 ft 10 kts 248°
2026-04-30 07:14 12.99307 80.17672 56 ft 0 kts 248°
2026-04-30 07:14 12.99239 80.17494 54 ft 70 kts 248°
2026-04-30 07:14 12.98984 80.16813 92 ft 124 kts 248°
2026-04-30 07:15 12.98628 80.15912 405 ft 149 kts 244°
2026-04-30 07:15 12.98203 80.14841 846 ft 175 kts 251°
2026-04-30 07:15 12.97949 80.13534 1264 ft 201 kts 266°
2026-04-30 07:15 12.98193 80.12588 1598 ft 213 kts 301°
2026-04-30 07:16 12.99367 80.11688 2422 ft 216 kts 340°
2026-04-30 07:16 13.01349 80.11823 3378 ft 221 kts 13°
2026-04-30 07:16 13.02358 80.11907 3778 ft 219 kts 347°
2026-04-30 07:16 13.03564 80.11083 4465 ft 211 kts 301°
2026-04-30 07:17 13.04173 80.09703 5083 ft 215 kts 292°
2026-04-30 07:17 13.05253 80.07953 5916 ft 220 kts 309°
2026-04-30 07:17 13.06916 80.05939 6961 ft 227 kts 310°
2026-04-30 07:18 13.07907 80.04686 8212 ft 226 kts 311°
2026-04-30 07:18 13.08914 80.03422 9364 ft 234 kts 311°
2026-04-30 07:18 13.09959 80.02107 10484 ft 238 kts 311°
2026-04-30 07:18 13.11001 80.00791 11582 ft 241 kts 311°
2026-04-30 07:19 13.12065 79.99454 12701 ft 243 kts 311°
2026-04-30 07:19 13.13139 79.98098 13789 ft 246 kts 311°
2026-04-30 07:19 13.14242 79.96716 14618 ft 260 kts 310°
2026-04-30 07:19 13.15445 79.95202 15206 ft 287 kts 310°
2026-04-30 07:20 13.16767 79.93535 15809 ft 315 kts 309°
2026-04-30 07:20 13.18210 79.91715 16424 ft 342 kts 309°
2026-04-30 07:20 13.19742 79.89785 17494 ft 350 kts 309°
2026-04-30 07:20 13.21277 79.87851 18615 ft 356 kts 308°
2026-04-30 07:21 13.22850 79.85865 19705 ft 360 kts 308°
2026-04-30 07:21 13.24442 79.83860 20752 ft 365 kts 308°
2026-04-30 07:21 13.26056 79.81822 21785 ft 370 kts 307°
2026-04-30 07:21 13.27688 79.79764 22838 ft 374 kts 307°
2026-04-30 07:22 13.31011 79.75570 24587 ft 383 kts 307°
2026-04-30 07:22 13.32704 79.73431 25385 ft 388 kts 307°
2026-04-30 07:22 13.34419 79.71268 26176 ft 393 kts 307°
2026-04-30 07:23 13.36159 79.69069 26957 ft 398 kts 307°
2026-04-30 07:23 13.37895 79.66878 27712 ft 403 kts 307°
2026-04-30 07:23 13.39672 79.64630 28459 ft 408 kts 307°
2026-04-30 07:23 13.41473 79.62356 29190 ft 413 kts 307°
2026-04-30 07:24 13.43294 79.60052 29908 ft 418 kts 307°
2026-04-30 07:24 13.45137 79.57721 30530 ft 421 kts 307°
2026-04-30 07:24 13.46991 79.55377 31176 ft 424 kts 307°
2026-04-30 07:24 13.48861 79.53011 31797 ft 427 kts 307°
2026-04-30 07:25 13.50742 79.50629 32406 ft 430 kts 308°
2026-04-30 07:25 13.52636 79.48230 32985 ft 433 kts 308°
2026-04-30 07:25 13.54531 79.45832 33736 ft 431 kts 308°
2026-04-30 07:25 13.56416 79.43445 34411 ft 428 kts 308°
2026-04-30 07:26 13.58290 79.41070 34995 ft 428 kts 308°
2026-04-30 07:26 13.60142 79.38723 35588 ft 427 kts 309°
2026-04-30 07:26 13.62013 79.36348 36198 ft 426 kts 309°
2026-04-30 07:26 13.63882 79.33981 36803 ft 426 kts 309°
2026-04-30 07:27 13.65743 79.31618 37416 ft 425 kts 309°
2026-04-30 07:27 13.67607 79.29253 38007 ft 424 kts 310°
2026-04-30 07:27 13.69463 79.26898 38569 ft 423 kts 310°
2026-04-30 07:27 13.71317 79.24544 39007 ft 423 kts 310°
2026-04-30 07:28 13.73169 79.22192 39416 ft 422 kts 310°
2026-04-30 07:28 13.75019 79.19842 39814 ft 422 kts 310°
2026-04-30 07:28 13.76862 79.17500 40177 ft 421 kts 310°
2026-04-30 07:28 13.78704 79.15159 40524 ft 421 kts 310°
2026-04-30 07:29 13.80545 79.12818 40847 ft 420 kts 310°
2026-04-30 07:29 13.82359 79.10511 41159 ft 420 kts 310°
2026-04-30 07:29 13.84193 79.08178 41459 ft 419 kts 311°
2026-04-30 07:29 13.86029 79.05841 41740 ft 419 kts 311°
2026-04-30 07:30 13.89691 79.01180 42261 ft 418 kts 311°
2026-04-30 07:30 13.91520 78.98851 42492 ft 418 kts 311°
2026-04-30 07:30 13.93348 78.96523 42716 ft 418 kts 311°
2026-04-30 07:31 13.95175 78.94195 42935 ft 418 kts 311°
2026-04-30 07:31 13.98856 78.89503 43016 ft 425 kts 311°
2026-04-30 07:32 14.02609 78.84716 43028 ft 433 kts 311°
2026-04-30 07:32 14.06431 78.79839 43037 ft 441 kts 311°
2026-04-30 07:33 14.10316 78.74877 43045 ft 448 kts 310°
2026-04-30 07:33 14.14243 78.69859 43041 ft 455 kts 310°
2026-04-30 07:34 14.18242 78.64748 43056 ft 461 kts 310°
2026-04-30 07:34 14.22281 78.59578 43045 ft 463 kts 310°
2026-04-30 07:35 14.26310 78.54420 43010 ft 455 kts 310°
2026-04-30 07:35 14.28269 78.51908 42882 ft 445 kts 310°
2026-04-30 07:35 14.30179 78.49463 42875 ft 440 kts 311°
2026-04-30 07:36 14.34053 78.44503 42876 ft 447 kts 310°
2026-04-30 07:36 14.37962 78.39486 42881 ft 448 kts 310°
2026-04-30 07:37 14.41871 78.34470 42886 ft 449 kts 310°
2026-04-30 07:37 14.45783 78.29445 42893 ft 448 kts 310°
2026-04-30 07:38 14.49659 78.24466 42897 ft 448 kts 310°
2026-04-30 07:38 14.53557 78.19455 42904 ft 447 kts 310°
2026-04-30 07:39 14.57476 78.14414 42908 ft 453 kts 310°
2026-04-30 07:39 14.61446 78.09302 42923 ft 458 kts 310°
2026-04-30 07:40 14.65458 78.04133 42928 ft 463 kts 310°
2026-04-30 07:40 14.69469 77.98963 42931 ft 464 kts 310°
2026-04-30 07:41 14.73507 77.93755 42940 ft 463 kts 310°
2026-04-30 07:41 14.77531 77.88561 42934 ft 463 kts 310°
2026-04-30 07:42 14.81558 77.83360 42941 ft 462 kts 310°
2026-04-30 07:42 14.85573 77.78171 42931 ft 461 kts 310°
2026-04-30 07:43 14.89555 77.73021 42933 ft 461 kts 310°
2026-04-30 07:43 14.93579 77.67816 42929 ft 464 kts 310°
2026-04-30 07:44 14.97616 77.62585 42928 ft 466 kts 310°
2026-04-30 07:44 15.01637 77.57376 42925 ft 464 kts 310°
2026-04-30 07:45 15.05663 77.52155 42925 ft 463 kts 310°
2026-04-30 07:45 15.09687 77.46934 42924 ft 462 kts 310°
2026-04-30 07:46 15.13681 77.41747 42923 ft 463 kts 310°
2026-04-30 07:46 15.17708 77.36515 42920 ft 464 kts 310°
2026-04-30 07:47 15.21737 77.31276 42917 ft 465 kts 310°
2026-04-30 07:47 15.25773 77.26025 42919 ft 466 kts 310°
2026-04-30 07:48 15.29788 77.20797 42915 ft 467 kts 310°
2026-04-30 07:48 15.33835 77.15524 42911 ft 466 kts 310°
2026-04-30 07:49 15.37862 77.10273 42905 ft 464 kts 310°
2026-04-30 07:49 15.41877 77.05033 42899 ft 464 kts 310°
2026-04-30 07:50 15.45860 76.99751 42889 ft 465 kts 309°
2026-04-30 07:50 15.49844 76.94500 42893 ft 466 kts 309°
2026-04-30 07:51 15.53850 76.89198 42887 ft 468 kts 309°
2026-04-30 07:51 15.57879 76.83873 42892 ft 469 kts 309°
2026-04-30 07:52 15.61903 76.78542 42888 ft 468 kts 309°
2026-04-30 07:52 15.65891 76.73259 42885 ft 467 kts 309°
2026-04-30 07:53 15.69894 76.67953 42887 ft 466 kts 309°
2026-04-30 07:53 15.73894 76.62649 42886 ft 467 kts 309°
2026-04-30 07:54 15.77907 76.57322 42891 ft 468 kts 309°
2026-04-30 07:54 15.81909 76.52003 42893 ft 469 kts 309°
2026-04-30 07:55 15.85930 76.46659 42896 ft 470 kts 309°
2026-04-30 07:55 15.89959 76.41299 42899 ft 470 kts 309°
2026-04-30 07:56 15.93952 76.35982 42903 ft 468 kts 309°
2026-04-30 07:56 15.97960 76.30643 42904 ft 467 kts 309°
2026-04-30 07:57 16.01953 76.25318 42901 ft 466 kts 309°
2026-04-30 07:57 16.05941 76.19999 42901 ft 466 kts 309°
2026-04-30 07:58 16.09932 76.14670 42904 ft 468 kts 309°
2026-04-30 07:58 16.13917 76.09347 42905 ft 469 kts 309°
2026-04-30 07:59 16.17930 76.03980 42909 ft 469 kts 309°
2026-04-30 07:59 16.21933 75.98622 42911 ft 468 kts 309°
2026-04-30 08:00 16.27893 75.90642 42916 ft 466 kts 309°
2026-04-30 08:00 16.31870 75.85309 42918 ft 466 kts 309°
2026-04-30 08:01 16.35847 75.79974 42920 ft 467 kts 309°
2026-04-30 08:01 16.39835 75.74618 42923 ft 467 kts 309°
2026-04-30 08:02 16.45795 75.66609 42927 ft 468 kts 309°
2026-04-30 08:03 16.53780 75.55863 42931 ft 468 kts 309°
2026-04-30 08:04 16.57757 75.50510 42937 ft 467 kts 309°
2026-04-30 08:04 16.61724 75.45161 42938 ft 466 kts 309°
2026-04-30 08:05 16.65763 75.39874 42936 ft 466 kts 309°
2026-04-30 08:05 16.69104 75.35448 42940 ft 467 kts 309°
2026-04-30 08:06 16.73804 75.29239 42950 ft 468 kts 309°
2026-04-30 08:06 16.77159 75.24799 42951 ft 469 kts 309°
2026-04-30 08:07 16.81206 75.19441 42952 ft 469 kts 309°
2026-04-30 08:07 16.85242 75.14097 42948 ft 468 kts 309°
2026-04-30 08:08 16.89264 75.08759 42952 ft 466 kts 309°
2026-04-30 08:08 16.93274 75.03444 42947 ft 465 kts 309°
2026-04-30 08:09 16.97287 74.98114 42947 ft 467 kts 309°
2026-04-30 08:09 17.01283 74.92806 42947 ft 468 kts 309°
2026-04-30 08:10 17.05319 74.87439 42945 ft 469 kts 309°
2026-04-30 08:10 17.09345 74.82078 42950 ft 468 kts 309°
2026-04-30 08:11 17.13359 74.76736 42952 ft 466 kts 309°
2026-04-30 08:11 17.17335 74.71435 42948 ft 466 kts 309°
2026-04-30 08:12 17.21337 74.66097 42947 ft 465 kts 309°
2026-04-30 08:12 17.25330 74.60767 42948 ft 466 kts 309°
2026-04-30 08:13 17.29328 74.55424 42949 ft 466 kts 309°
2026-04-30 08:13 17.33332 74.50069 42945 ft 466 kts 309°
2026-04-30 08:14 17.35791 74.46780 42946 ft 466 kts 309°
2026-04-30 08:16 17.38282 74.43446 42943 ft 452 kts 309°
2026-04-30 08:16 17.40183 74.40898 42932 ft 435 kts 309°
2026-04-30 08:16 17.42015 74.38442 42918 ft 421 kts 309°
2026-04-30 08:16 17.43831 74.36014 42194 ft 426 kts 309°
2026-04-30 08:17 17.45627 74.33607 41410 ft 414 kts 309°
2026-04-30 08:17 17.47391 74.31238 40537 ft 411 kts 309°
2026-04-30 08:17 17.49142 74.28889 39676 ft 406 kts 309°
2026-04-30 08:17 17.50842 74.26610 38867 ft 399 kts 309°
2026-04-30 08:18 17.52530 74.24342 37964 ft 391 kts 309°
2026-04-30 08:18 17.54187 74.22117 37043 ft 383 kts 309°
2026-04-30 08:18 17.55814 74.19932 36162 ft 376 kts 309°
2026-04-30 08:18 17.57408 74.17788 35314 ft 370 kts 309°
2026-04-30 08:19 17.58978 74.15679 34499 ft 364 kts 309°
2026-04-30 08:19 17.60523 74.13598 33858 ft 361 kts 309°
2026-04-30 08:19 17.62081 74.11507 33157 ft 368 kts 310°
2026-04-30 08:19 17.63680 74.09358 32476 ft 382 kts 309°
2026-04-30 08:20 17.65334 74.07131 31980 ft 390 kts 310°
2026-04-30 08:20 17.67012 74.04870 31532 ft 396 kts 310°
2026-04-30 08:20 17.68707 74.02584 31079 ft 398 kts 310°
2026-04-30 08:20 17.70413 74.00286 30630 ft 399 kts 310°
2026-04-30 08:21 17.72120 73.97988 30194 ft 400 kts 310°
2026-04-30 08:21 17.73833 73.95679 29383 ft 405 kts 310°
2026-04-30 08:21 17.75563 73.93344 28368 ft 405 kts 310°
2026-04-30 08:21 17.77289 73.91015 27381 ft 401 kts 310°
2026-04-30 08:22 17.78994 73.88715 26428 ft 397 kts 310°
2026-04-30 08:22 17.80681 73.86435 25652 ft 393 kts 310°
2026-04-30 08:22 17.82342 73.84196 24935 ft 395 kts 310°
2026-04-30 08:22 17.84035 73.81909 24232 ft 399 kts 309°
2026-04-30 08:23 17.85747 73.79592 23546 ft 402 kts 309°
2026-04-30 08:23 17.87468 73.77269 22732 ft 403 kts 309°
2026-04-30 08:23 17.89196 73.74933 21926 ft 407 kts 309°
2026-04-30 08:23 17.90938 73.72576 21142 ft 410 kts 309°
2026-04-30 08:24 17.92697 73.70190 20382 ft 415 kts 309°
2026-04-30 08:24 17.94480 73.67785 19636 ft 418 kts 308°
2026-04-30 08:24 17.96269 73.65361 18907 ft 421 kts 308°
2026-04-30 08:24 17.98066 73.62918 18196 ft 423 kts 308°
2026-04-30 08:25 17.99869 73.60481 17395 ft 416 kts 308°
2026-04-30 08:25 18.01536 73.58226 16591 ft 389 kts 308°
2026-04-30 08:25 18.03191 73.55977 15820 ft 388 kts 308°
2026-04-30 08:25 18.04832 73.53746 15067 ft 385 kts 308°
2026-04-30 08:26 18.06448 73.51556 14342 ft 383 kts 308°
2026-04-30 08:26 18.08078 73.49347 13604 ft 381 kts 308°
2026-04-30 08:26 18.09696 73.47153 12937 ft 377 kts 307°
2026-04-30 08:26 18.11295 73.44988 12318 ft 373 kts 307°
2026-04-30 08:27 18.12874 73.42850 11878 ft 366 kts 307°
2026-04-30 08:27 18.14417 73.40763 11612 ft 358 kts 307°
2026-04-30 08:27 18.15933 73.38718 11337 ft 352 kts 307°
2026-04-30 08:27 18.17432 73.36694 11072 ft 348 kts 307°
2026-04-30 08:28 18.18917 73.34693 10810 ft 346 kts 307°
2026-04-30 08:28 18.20391 73.32705 10558 ft 343 kts 307°
2026-04-30 08:28 18.21859 73.30730 10293 ft 342 kts 306°
2026-04-30 08:28 18.23307 73.28785 9751 ft 326 kts 306°
2026-04-30 08:29 18.24678 73.26954 8917 ft 315 kts 306°
2026-04-30 08:29 18.26027 73.25143 8887 ft 314 kts 306°
2026-04-30 08:29 18.27360 73.23359 8884 ft 313 kts 307°
2026-04-30 08:29 18.28705 73.21559 8874 ft 313 kts 307°
2026-04-30 08:30 18.30048 73.19760 8869 ft 313 kts 306°
2026-04-30 08:30 18.31391 73.17960 8870 ft 313 kts 306°
2026-04-30 08:30 18.32723 73.16154 8869 ft 311 kts 304°
2026-04-30 08:30 18.33848 73.14252 8700 ft 305 kts 297°
2026-04-30 08:31 18.34696 73.12244 8353 ft 298 kts 289°
2026-04-30 08:31 18.35261 73.10148 8012 ft 297 kts 282°
2026-04-30 08:31 18.35539 73.07987 7670 ft 298 kts 274°
2026-04-30 08:31 18.35642 73.05847 7309 ft 297 kts 279°
2026-04-30 08:32 18.36450 73.03872 6827 ft 289 kts 306°
2026-04-30 08:32 18.37935 73.02619 6347 ft 265 kts 331°
2026-04-30 08:32 18.39710 73.02239 5840 ft 264 kts 360°
2026-04-30 08:32 18.41494 73.02769 5354 ft 265 kts 15°
2026-04-30 08:33 18.43276 73.02995 4862 ft 256 kts 351°
2026-04-30 08:33 18.44997 73.02556 4382 ft 254 kts 340°
2026-04-30 08:33 18.46737 73.02262 3909 ft 258 kts
2026-04-30 08:33 18.48436 73.02512 3871 ft 237 kts
2026-04-30 08:34 18.50054 73.02778 3868 ft 233 kts
2026-04-30 08:34 18.51616 73.03034 3878 ft 226 kts
2026-04-30 08:34 18.53179 73.03288 3978 ft 226 kts
2026-04-30 08:34 18.54741 73.03103 3990 ft 225 kts 343°
2026-04-30 08:35 18.56304 73.03094 3992 ft 229 kts
2026-04-30 08:35 18.57785 73.03714 3992 ft 228 kts 21°
2026-04-30 08:35 18.59335 73.04039 3991 ft 228 kts
2026-04-30 08:35 18.60912 73.04183 3996 ft 227 kts
2026-04-30 08:36 18.62489 73.04344 3994 ft 227 kts
2026-04-30 08:36 18.64059 73.04501 3996 ft 227 kts
2026-04-30 08:36 18.65617 73.04650 3998 ft 228 kts
2026-04-30 08:36 18.67196 73.04805 3995 ft 228 kts
2026-04-30 08:37 18.68772 73.04947 3991 ft 227 kts
2026-04-30 08:37 18.70342 73.05087 3991 ft 226 kts
2026-04-30 08:37 18.71918 73.05239 3994 ft 229 kts
2026-04-30 08:37 18.73502 73.05392 3993 ft 230 kts
2026-04-30 08:38 18.75115 73.05545 3999 ft 233 kts
2026-04-30 08:38 18.76721 73.05702 3995 ft 229 kts
2026-04-30 08:38 18.78311 73.05858 3995 ft 229 kts
2026-04-30 08:38 18.79904 73.06012 3995 ft 230 kts
2026-04-30 08:39 18.81481 73.06168 3991 ft 227 kts
2026-04-30 08:39 18.83065 73.06325 3986 ft 230 kts
2026-04-30 08:39 18.84666 73.06481 3880 ft 235 kts
2026-04-30 08:39 18.86285 73.06646 3646 ft 232 kts
2026-04-30 08:40 18.87861 73.06806 3406 ft 230 kts
2026-04-30 08:40 18.89448 73.06972 3179 ft 229 kts
2026-04-30 08:40 18.91037 73.07133 2939 ft 230 kts
2026-04-30 08:40 18.92619 73.07203 2803 ft 222 kts 358°
2026-04-30 08:41 18.94152 73.07246 2790 ft 224 kts 358°
2026-04-30 08:41 18.95740 73.07285 2793 ft 230 kts 358°
2026-04-30 08:41 18.97322 73.07319 2797 ft 226 kts 356°
2026-04-30 08:41 18.98900 73.07327 2796 ft 227 kts 356°
2026-04-30 08:42 19.00483 73.07336 2793 ft 226 kts 357°
2026-04-30 08:42 19.02042 73.07348 2792 ft 227 kts 357°
2026-04-30 08:42 19.03630 73.07359 2799 ft 229 kts 357°
2026-04-30 08:42 19.05200 73.07373 2797 ft 220 kts 356°
2026-04-30 08:43 19.06687 73.07388 2785 ft 208 kts 357°
2026-04-30 08:43 19.08068 73.07234 2780 ft 192 kts 338°
2026-04-30 08:43 19.09026 73.06370 2779 ft 180 kts 295°
2026-04-30 08:43 19.09144 73.05097 2777 ft 179 kts 264°
2026-04-30 08:44 19.09120 73.03795 2806 ft 182 kts 271°
2026-04-30 08:44 19.09113 73.02428 2655 ft 188 kts 267°
2026-04-30 08:44 19.09065 73.01047 2427 ft 188 kts 267°
2026-04-30 08:44 19.09053 72.99651 2180 ft 190 kts 269°
2026-04-30 08:45 19.09034 72.98363 1947 ft 159 kts 266°
2026-04-30 08:45 19.09015 72.97286 1771 ft 139 kts 267°
2026-04-30 08:45 19.09005 72.96322 1605 ft 133 kts 267°
2026-04-30 08:45 19.08990 72.95343 1431 ft 133 kts 267°
2026-04-30 08:46 19.08977 72.94360 1262 ft 134 kts 266°
2026-04-30 08:46 19.08963 72.93386 1089 ft 135 kts 267°
2026-04-30 08:46 19.08953 72.92395 925 ft 136 kts 266°
2026-04-30 08:46 19.08928 72.91406 757 ft 135 kts 266°
2026-04-30 08:47 19.08930 72.90408 585 ft 135 kts 267°
2026-04-30 08:47 19.08929 72.89445 405 ft 123 kts 263°
2026-04-30 08:47 19.08903 72.88558 208 ft 117 kts 262°
2026-04-30 08:47 19.08883 72.87703 50 ft 115 kts 264°
2026-04-30 08:48 19.08868 72.86951 21 ft 80 kts 276°
2026-04-30 08:48 19.08862 72.86559 19 ft 38 kts 278°
2026-04-30 08:48 19.08968 72.86416 19 ft 8 kts 315°
2026-04-30 08:48 19.09014 72.86364 19 ft 12 kts 311°
2026-04-30 08:49 19.09031 72.86282 19 ft 12 kts 266°
2026-04-30 08:49 19.09031 72.86258 19 ft 0 kts 271°
2026-04-30 08:49 19.09043 72.86234 21 ft 8 kts 314°
2026-04-30 08:49 19.09104 72.86169 19 ft 10 kts 324°
2026-04-30 08:50 19.09119 72.86171 19 ft 5 kts 19°
2026-04-30 08:50 19.09147 72.86196 20 ft 5 kts 43°
2026-04-30 08:50 19.09153 72.86202 20 ft 0 kts 43°